GFSNW_con_mucape_000.txt.gz
CAPE
51 23 43 33 16 0 0 0 0 0 0 0 0 0 0 0 0 0 0 0 0 0 0 0 0 0 0 0 0 0 0 0 0 0 0 0 0 0 0 2 1 10 9 0
46 43 46 45 33 3 0 0 0 0 0 0 0 0 0 0 0 0 0 0 0 0 0 0 0 0 0 0 0 0 0 0 4 0 0 0 0 0 0 0 2 96 14 0
62 65 59 54 41 7 0 0 0 0 0 0 0 0 0 0 0 0 0 0 0 0 0 0 0 0 0 0 0 119 0 0 0 0 0 0 0 0 0 0 3 1 5 26
69 72 93 70 64 40 30 0 0 0 0 73 63 41 0 0 0 0 0 0 0 0 0 0 0 0 0 0 0 0 91 97 33 0 0 0 0 0 0 0 0 3 0 8
81 79 104 95 52 4 6 6 55 37 0 0 0 0 0 0 0 2 0 0 0 0 0 0 0 0 0 0 0 0 0 130 57 35 8 7 4 0 0 0 0 0 0 0
76 84 92 138 70 5 44 28 0 0 0 0 0 0 0 1 46 2 0 0 0 0 0 0 0 0 0 0 0 0 14 161 387 216 111 66 63 11 3 0 0 0 0 0
92 87 78 102 127 52 95 57 0 0 0 0 0 0 0 0 0 0 0 0 0 0 0 0 0 0 0 0 0 0 79 482 437 342 289 247 1 1 0 0 0 0 0 0
105 102 77 106 149 78 59 93 0 0 0 0 0 0 0 0 2 0 0 0 0 0 0 0 0 0 0 0 0 0 16 192 374 204 290 134 31 196 28 3 0 0 0 0
124 110 113 123 147 146 95 110 85 1 0 0 0 0 0 0 0 0 0 0 0 0 0 1 0 0 0 0 0 30 83 162 308 298 197 174 566 323 222 315 80 0 0 0
120 114 122 115 112 139 69 169 168 97 89 0 0 0 0 11 12 16 1 0 0 13 180 94 39 55 28 25 73 161 315 447 116 271 310 301 444 265 400 352 51 4 44 117
120 125 118 114 89 77 62 51 93 50 0 0 0 0 0 1 14 16 3 0 0 59 277 195 129 132 125 99 203 567 496 415 159 303 362 331 166 440 665 658 457 448 455 522
121 111 111 67 55 30 47 37 281 314 69 0 3 1 2 0 0 0 0 0 22 49 60 195 208 400 252 167 198 454 384 226 210 284 208 218 100 275 457 589 615 600 605 564
107 90 78 56 32 30 55 63 175 90 57 0 4 1 0 0 0 1 0 0 25 62 18 35 56 215 436 499 562 356 454 420 479 510 243 70 38 66 185 323 374 360 374 330
54 30 46 47 34 0 12 58 98 86 2 0 0 0 0 0 0 0 0 0 31 72 66 74 66 176 291 389 750 903 252 353 438 280 105 17 9 8 14 86 114 206 253 275
16 19 39 32 42 32 100 134 73 84 50 0 0 0 0 0 0 0 0 2 103 62 62 62 103 66 57 325 318 106 100 322 488 137 123 46 0 15 2 6 44 41 75 63
43 32 48 32 32 24 66 39 11 41 51 0 0 0 0 25 5 0 0 0 18 40 33 32 30 35 42 217 81 27 64 101 29 79 45 45 8 0 10 12 14 1 14 66
45 40 45 39 44 52 55 0 0 3 45 0 25 60 104 59 38 18 4 0 4 0 0 1 2 1 37 71 32 7 22 37 16 0 23 10 17 46 11 12 3 0 0 0
4 11 24 37 35 38 0 0 0 1 1 41 44 52 151 98 146 85 13 1 0 1 1 0 28 24 2 9 4 5 9 38 22 19 17 21 17 0 0 0 0 1 0 0
11 2 0 19 19 0 31 4 16 9 10 45 9 32 107 132 92 94 22 5 0 0 26 178 80 0 5 0 0 9 14 40 12 17 0 0 16 0 3 18 2 14 0 0
0 5 43 47 48 0 16 40 0 3 2 16 30 34 86 61 221 110 86 56 1 11 186 150 3 0 1 17 9 8 5 13 0 0 13 16 0 0 0 17 0 2 0 0
18 23 29 51 0 63 52 4 1 7 9 47 47 66 82 108 188 217 178 120 104 0 123 13 0 0 0 0 0 0 1 0 3 4 1 0 0 3 4 0 19 1 5 9
13 0 0 0 45 49 15 64 38 3 90 122 134 22 24 33 68 183 206 134 118 73 127 89 0 0 0 0 0 42 44 0 0 0 0 1 0 0 0 0 0 0 0 0
0 0 0 3 23 26 115 106 157 156 105 207 193 146 0 139 112 186 255 153 219 68 97 97 0 0 74 71 63 84 58 57 39 14 3 1 0 0 0 0 0 0 1 7
0 0 0 0 10 19 65 123 185 244 252 246 209 230 123 186 134 136 85 215 212 114 0 80 132 127 43 86 44 21 14 8 9 2 5 1 2 1 4 11 4 8 17 35
0 0 2 15 5 52 127 187 240 177 184 256 288 76 108 132 177 116 193 89 88 22 4 77 278 173 184 166 148 121 118 89 69 41 19 15 14 11 14 41 62 47 54 75
28 13 45 96 89 66 60 71 203 171 159 343 118 20 40 137 156 75 107 40 0 0 0 98 236 275 210 279 219 206 197 160 117 74 50 25 26 42 54 52 53 91 117 97
34 77 93 88 73 48 11 39 60 74 282 249 145 157 141 195 34 0 7 13 1 66 149 309 357 338 325 335 285 244 214 242 223 172 134 165 89 58 46 51 58 40 52 83

GFSNW_con_mucape_003.txt.gz
CAPE
61 51 64 51 30 0 0 0 0 0 0 0 0 0 0 0 0 0 0 0 0 0 0 0 0 0 0 0 0 0 0 0 0 0 0 0 0 0 0 25 35 21 72 71
52 61 77 62 32 22 28 3 0 0 0 0 0 0 0 0 0 0 0 0 0 0 0 0 0 0 0 0 0 0 0 0 0 0 0 0 0 0 0 0 12 132 44 4
45 66 75 64 44 44 43 36 0 7 3 0 0 0 0 0 0 0 0 0 0 0 0 0 0 0 0 0 0 0 0 0 0 0 0 0 0 0 0 0 0 7 11 47
58 78 89 75 63 41 15 63 39 52 58 41 0 6 0 0 0 11 3 0 0 0 0 0 0 0 0 0 0 0 0 0 0 0 0 3 0 0 0 0 0 1 4 40
81 89 127 91 77 31 0 123 107 102 67 46 1 2 10 0 0 0 0 0 0 0 0 0 0 0 0 0 0 0 0 15 18 0 0 0 2 3 0 0 0 0 0 1
102 102 101 134 77 33 81 83 191 139 22 75 95 3 0 5 4 3 0 0 0 12 9 0 0 0 6 0 19 18 38 70 328 161 66 93 72 0 0 1 1 0 0 0
107 120 114 121 143 70 132 6 48 109 100 84 127 55 13 0 1 49 18 0 0 0 0 0 0 0 0 0 4 2 38 66 65 143 330 239 0 99 58 30 22 13 8 0
102 109 144 134 154 155 259 117 10 0 51 50 111 125 49 28 0 0 0 0 0 0 0 0 0 0 0 0 0 0 18 54 79 281 406 273 221 541 440 500 195 29 24 1
123 122 162 140 153 187 291 403 91 2 30 64 73 87 56 64 33 28 3 5 0 0 0 2 0 0 0 0 0 0 1 14 207 450 266 326 171 700 508 402 211 15 45 49
149 160 161 147 139 142 299 138 80 14 12 9 53 79 10 32 0 82 0 34 0 7 0 0 0 0 3 0 0 0 0 3 0 78 216 179 845 502 547 429 417 1114 844 628
145 164 159 150 161 116 185 289 336 73 11 9 47 60 59 1 42 0 7 78 52 99 111 116 0 0 3 24 57 44 0 15 24 90 142 183 549 556 575 1070 886 1008 993 864
123 128 109 139 67 63 54 138 297 134 54 10 37 52 42 32 37 18 10 14 12 26 137 135 30 171 196 98 95 60 111 18 38 101 268 916 714 891 840 831 892 1002 1071 962
109 91 75 82 82 39 95 101 259 151 66 29 78 86 83 3 0 1 19 22 27 47 32 0 0 0 269 217 158 104 173 147 324 552 662 586 672 599 591 621 705 759 1003 1079
67 65 63 57 52 33 38 190 182 123 77 84 18 74 38 7 8 0 0 37 22 1 20 0 0 0 8 105 172 592 13 372 481 767 533 331 182 231 230 309 432 419 650 830
30 43 51 73 42 66 77 175 321 361 72 28 6 0 58 0 0 1 0 0 19 59 26 0 0 32 4 190 104 32 2 130 468 521 560 298 0 0 8 39 55 140 166 398
22 47 53 25 22 75 93 105 67 69 182 68 0 37 152 195 0 5 0 1 21 20 2 39 75 44 1 2 0 1 0 80 252 157 81 0 0 0 37 6 0 0 0 0
4 0 4 22 27 40 117 58 23 2 39 1 10 35 214 383 59 24 67 25 4 4 0 1 87 30 51 0 0 57 100 150 78 65 1 0 0 6 8 4 0 0 0 3
11 0 0 16 41 16 20 20 1 0 18 43 34 29 366 301 236 206 132 49 2 36 0 61 2 38 3 8 1 2 43 23 46 4 0 0 4 12 8 18 1 5 0 0
0 0 0 14 12 18 216 0 7 0 12 10 20 2 66 250 62 37 51 42 3 3 8 117 37 0 0 1 1 2 25 13 15 5 1 1 0 30 27 0 0 0 0 0
2 9 39 185 79 0 56 95 0 11 13 12 7 41 114 70 155 58 11 2 11 56 95 10 0 0 0 0 0 3 16 49 38 7 6 13 4 1 6 15 0 0 0 0
16 21 44 77 0 66 127 6 18 14 22 37 177 366 302 147 149 143 108 108 43 1 3 4 0 0 0 3 3 13 21 27 27 3 3 0 0 0 0 0 0 0 46 9
0 0 0 14 53 74 6 65 71 71 52 216 151 160 140 112 57 217 256 117 21 87 1 2 0 0 0 0 0 0 0 5 5 8 0 0 0 40 51 55 30 25 46 31
0 40 28 12 80 114 0 78 5 60 191 273 286 219 149 244 188 2 131 71 71 92 0 0 0 0 43 74 0 0 86 0 0 1 0 4 17 21 36 49 24 33 42 59
0 0 1 6 32 68 270 289 188 281 386 349 210 139 160 303 285 136 35 63 52 39 0 0 6 0 57 129 104 95 71 71 74 42 24 20 35 20 25 23 42 17 79 119
0 0 0 21 49 147 102 347 268 223 247 199 131 216 168 186 176 151 99 80 0 0 27 86 13 62 82 75 78 72 75 83 82 61 35 30 34 32 36 104 60 104 124 95
100 41 46 86 153 131 101 187 257 299 346 218 199 183 132 83 65 23 0 0 0 1 75 194 214 163 77 92 125 199 127 113 88 59 44 43 35 48 68 58 46 84 100 122
56 63 41 43 42 116 169 182 221 312 335 256 119 73 55 51 0 0 0 0 1 0 63 190 110 299 252 123 122 189 166 199 146 113 149 158 84 65 100 130 28 39 38 23

GFSNW_con_mucape_006.txt.gz
CAPE
52 58 64 56 42 0 0 5 0 0 8 0 0 0 0 0 0 0 0 0 0 0 0 0 0 0 0 0 0 0 0 0 0 0 0 0 0 0 0 0 0 0 0 5
59 64 62 51 35 28 41 4 0 0 0 0 0 0 0 0 0 0 0 0 0 0 0 0 0 0 0 0 0 0 0 0 0 0 0 0 0 0 0 0 0 8 5 0
84 94 79 62 52 48 42 42 0 0 1 0 18 12 0 0 0 0 0 0 0 0 0 0 0 0 0 0 0 21 0 0 0 0 0 0 0 0 0 0 0 0 0 7
85 132 108 84 75 46 58 57 28 16 12 2 2 8 38 0 0 0 2 0 0 0 0 0 0 0 0 0 0 1 0 0 0 0 0 0 0 0 0 0 0 0 0 0
94 110 195 169 72 21 74 72 82 84 33 1 38 4 0 1 9 5 0 0 0 0 0 0 0 0 0 0 0 0 0 0 0 0 0 0 5 0 0 0 0 0 0 0
120 152 160 201 115 12 105 15 50 125 32 43 32 0 7 2 6 0 0 0 0 0 0 0 0 0 0 0 0 29 27 0 23 0 0 1 22 0 2 0 0 0 0 0
127 174 170 177 170 39 297 169 102 0 105 62 77 65 19 6 84 10 0 0 0 0 0 0 0 0 0 0 0 0 126 24 12 32 160 82 0 0 1 1 1 0 0 0
133 163 181 157 217 183 363 314 50 0 45 47 9 105 93 68 49 119 2 1 0 0 0 0 0 0 0 0 0 0 43 135 76 234 273 48 36 44 96 42 16 6 4 45
136 177 216 191 246 173 281 491 160 9 0 0 36 102 89 60 133 128 66 79 50 0 0 0 0 0 0 0 4 0 0 242 86 179 82 177 262 460 351 331 238 821 773 632
64 133 172 171 161 201 244 363 278 60 0 0 15 91 100 134 145 133 192 118 71 0 0 0 0 0 0 0 29 0 2 53 14 65 44 0 457 380 216 417 469 883 825 841
44 137 115 140 132 159 180 270 354 51 6 8 18 61 87 43 66 1 0 1 125 98 0 0 0 0 0 0 20 61 0 0 0 204 395 330 523 111 213 892 800 707 675 779
78 86 101 100 106 64 48 243 454 284 104 3 0 16 86 21 15 53 18 3 11 96 101 104 70 7 107 100 0 7 2 0 14 22 23 260 942 1179 856 759 770 1149 1435 1053
58 57 47 59 71 64 34 394 427 219 43 14 69 83 129 84 14 0 21 2 8 35 28 42 14 88 172 202 39 62 55 154 101 158 324 908 803 582 530 697 1119 1149 1189 1310
39 36 23 26 39 33 21 98 232 172 61 51 0 2 62 49 97 26 0 1 17 50 59 0 0 33 77 20 76 317 181 166 388 269 1421 863 694 600 615 604 744 694 829 1050
21 21 32 41 30 71 32 134 392 255 0 9 2 0 1 37 10 32 1 3 10 7 0 67 0 132 0 82 39 48 27 70 202 770 867 778 487 238 43 30 127 79 381 479
12 1 0 3 8 62 36 80 129 269 186 63 1 8 14 166 8 0 2 0 4 1 47 42 8 9 0 0 2 2 4 102 88 70 125 33 13 0 0 0 0 0 0 45
22 22 3 0 15 18 98 59 23 2 69 0 0 0 238 239 0 2 11 1 8 44 40 0 0 22 39 0 0 0 0 4 4 8 0 0 6 0 0 0 0 0 0 0
5 2 0 0 0 0 2 21 3 1 0 0 0 0 82 132 20 66 83 55 32 66 0 0 80 49 0 0 7 36 0 28 8 56 28 69 2 5 3 7 3 2 0 0
0 0 0 1 0 8 167 1 0 0 0 0 0 0 4 11 17 73 30 22 0 62 0 0 21 1 0 0 2 31 31 0 34 93 76 31 5 18 14 13 11 6 0 1
0 0 34 102 204 11 15 0 1 7 0 0 0 2 2 16 0 12 0 0 0 0 0 0 0 0 0 0 0 24 44 32 54 16 5 0 0 4 28 28 30 17 10 0
11 11 4 15 3 68 25 29 0 0 0 0 20 126 278 25 37 190 250 205 111 0 0 0 0 0 0 0 25 16 31 26 22 31 76 54 46 26 22 14 6 0 0 0
0 0 0 2 48 28 0 0 0 0 3 16 172 168 133 123 103 35 107 80 8 0 24 0 0 0 0 0 0 1 1 18 17 4 11 1 7 29 0 0 3 2 58 69
7 23 34 5 14 2 0 0 0 14 21 144 150 186 51 123 223 13 4 0 33 37 0 0 0 0 0 0 0 0 0 0 0 0 0 1 25 2 0 19 71 66 111 48
10 4 106 3 8 15 7 94 60 78 72 256 106 111 0 10 0 0 0 0 8 0 0 0 0 0 6 53 78 91 19 33 45 58 42 40 64 15 47 52 45 91 73 200
18 45 215 110 168 383 267 209 161 236 111 136 181 176 189 88 72 80 39 0 0 0 0 0 48 56 118 139 118 149 109 123 119 109 118 102 121 149 142 130 75 81 115 179
141 117 71 112 71 50 77 191 167 470 193 110 130 65 34 0 0 0 0 0 0 0 0 44 88 139 40 57 140 139 107 111 194 181 188 257 177 151 176 96 159 111 156 282
29 54 83 109 137 103 138 171 265 194 321 89 12 34 5 5 0 0 4 1 0 0 5 19 48 50 26 135 178 163 101 266 188 240 169 32 249 141 290 307 301 48 173 185

GFSNW_con_mucape_009.txt.gz
CAPE
65 69 65 56 41 0 0 0 0 0 0 0 0 0 0 0 0 0 0 0 0 0 0 0 0 0 0 0 0 0 0 0 0 0 0 0 0 0 0 0 0 0 0 0
73 73 67 69 53 49 9 0 0 0 0 0 0 0 0 0 0 0 0 0 0 0 0 0 0 0 0 0 0 0 0 0 0 0 0 0 0 0 0 0 0 0 0 0
65 75 72 69 52 55 17 27 0 0 0 1 12 1 0 0 0 0 0 0 0 0 0 0 0 0 0 0 0 15 1 0 0 0 0 0 0 0 0 0 0 0 0 0
64 69 95 121 84 62 56 95 21 12 0 0 10 11 0 0 0 0 0 0 0 0 0 0 0 0 0 0 0 0 0 0 0 0 0 0 0 0 0 0 0 0 0 0
64 109 135 188 133 55 99 45 61 12 0 0 0 37 19 11 13 0 0 1 0 0 0 0 0 0 0 0 0 0 0 0 0 0 0 0 0 0 0 0 0 0 0 0
71 79 153 189 144 18 127 84 50 39 1 0 3 0 23 3 7 0 0 0 0 0 0 0 0 0 0 0 0 0 0 0 0 0 0 0 0 0 0 0 0 0 0 0
63 56 142 203 196 54 157 189 104 4 0 0 2 0 0 4 4 4 0 5 4 0 8 0 0 0 0 0 0 0 0 0 0 0 0 0 0 0 0 0 0 0 0 0
51 47 101 145 208 138 147 198 85 0 0 0 4 0 7 1 2 1 0 0 24 12 38 0 0 0 0 0 0 0 0 0 0 0 0 0 0 0 0 3 0 36 286 158
61 60 96 147 212 159 136 198 135 25 1 0 0 11 0 1 13 35 67 31 29 13 13 12 0 0 0 0 0 0 0 0 0 0 0 0 0 52 239 148 206 730 560 487
66 68 131 131 179 217 184 189 130 39 0 2 0 0 17 23 57 16 2 9 1 45 3 22 0 0 0 0 0 0 1 16 0 27 0 0 78 257 208 162 468 489 398 439
94 95 102 122 138 128 79 95 192 106 1 0 0 0 5 6 24 44 45 0 19 9 113 0 0 0 0 0 0 0 0 0 6 86 91 53 436 353 413 658 961 1193 1184 1408
83 57 75 66 73 86 88 65 287 203 49 1 0 0 0 0 0 17 4 0 0 7 100 218 157 0 47 10 0 0 0 0 5 13 127 366 441 614 483 543 951 1004 1136 1559
56 66 64 46 52 55 62 64 139 110 37 0 0 0 0 2 3 7 2 0 0 1 53 9 144 87 183 104 16 159 35 93 46 127 0 186 146 181 859 670 331 554 1003 1144
47 36 31 43 59 72 35 18 97 82 22 0 0 0 0 0 5 0 1 4 5 67 62 0 16 19 125 60 0 17 303 73 116 142 561 680 609 501 518 398 236 514 836 1105
46 31 14 0 4 48 21 4 15 37 0 0 0 0 0 6 0 0 1 1 2 8 0 51 64 99 70 73 79 0 2 137 59 151 308 371 380 162 172 205 201 389 654 885
40 30 16 19 36 28 1 37 90 170 52 0 0 0 0 31 102 49 14 6 0 3 56 80 58 2 0 0 0 0 0 23 46 85 260 330 25 32 68 76 25 0 46 250
26 24 20 12 20 2 0 38 43 18 0 0 0 0 29 18 54 0 0 0 0 11 68 24 4 3 3 12 0 0 0 41 32 70 35 83 69 13 24 26 14 0 0 0
13 9 4 1 0 1 0 6 12 17 0 0 0 0 4 5 34 8 7 0 25 58 55 0 0 0 0 0 0 20 0 4 38 41 36 12 0 43 29 16 0 0 0 0
0 0 0 0 1 2 56 0 0 0 0 0 0 0 0 0 26 70 41 24 0 0 0 1 0 0 0 1 3 0 0 8 12 0 14 7 0 0 0 0 17 0 0 0
0 0 6 36 44 0 2 0 0 1 0 0 0 0 0 0 0 0 0 0 0 0 0 0 0 0 0 0 1 3 0 0 0 1 6 30 23 37 41 41 25 7 1 1
6 0 0 0 0 0 0 0 0 0 0 0 0 0 0 1 0 0 38 0 0 0 0 0 0 0 0 2 3 7 19 11 6 16 18 18 30 25 35 29 12 15 12 8
0 0 0 0 0 0 0 0 0 0 0 0 0 0 0 8 8 0 0 0 0 0 0 0 0 0 0 0 2 6 0 4 13 25 37 18 42 9 7 9 5 0 3 18
3 0 21 0 8 12 2 0 0 1 0 31 25 0 0 2 0 0 0 1 0 0 0 0 0 0 0 0 0 0 0 0 0 0 0 0 0 24 36 19 40 25 59 64
13 9 0 36 10 9 7 0 0 4 29 23 18 0 0 0 0 0 0 18 0 0 0 0 0 0 0 0 5 5 12 36 0 14 1 34 62 66 53 70 55 66 22 58
73 47 0 100 77 100 73 40 40 30 185 114 87 54 0 0 0 0 0 0 0 0 0 0 0 0 13 28 57 74 71 101 66 70 63 99 75 78 38 21 54 72 86 33
203 108 94 108 61 38 18 61 2 13 9 34 7 29 0 0 0 0 0 0 0 0 0 0 0 0 34 41 36 34 108 169 62 62 116 119 38 129 89 65 62 27 99 116
15 67 143 66 42 67 98 62 18 38 0 0 0 0 0 0 0 0 0 0 0 0 0 0 0 0 7 21 20 47 69 38 25 13 30 19 46 10 7 30 29 29 43 32

GFSNW_con_mucape_015.txt.gz
CAPE
55 69 72 60 33 0 0 0 0 0 0 0 0 0 0 0 0 0 0 0 0 0 0 0 0 0 0 0 0 0 0 0 0 0 0 0 0 0 0 0 0 0 0 0
59 70 73 56 36 22 1 0 0 0 0 0 0 0 0 0 0 0 0 0 0 0 0 0 0 0 0 0 0 0 0 0 0 0 0 0 0 0 0 0 0 0 0 0
61 78 66 55 48 30 2 0 0 0 1 0 0 0 0 0 3 2 0 0 0 0 0 0 0 0 0 0 0 0 0 0 0 0 0 0 0 0 0 0 0 0 0 0
72 92 81 64 44 20 3 0 0 1 0 0 0 0 0 0 0 2 1 0 0 0 0 0 0 0 0 0 0 0 0 0 0 0 0 0 0 0 0 0 0 0 0 0
65 82 107 111 58 5 0 0 0 0 0 4 0 0 0 2 8 9 0 2 0 0 0 0 0 0 0 0 0 0 0 0 0 0 0 0 0 0 0 0 0 0 0 0
99 111 121 161 58 3 0 0 0 3 23 0 0 0 3 0 2 1 0 0 0 0 0 0 0 0 0 0 0 0 0 0 0 0 0 0 0 0 0 0 0 0 0 0
47 75 137 195 103 9 8 0 5 15 0 0 0 0 0 0 0 0 0 0 0 0 0 0 0 0 0 0 0 0 0 0 0 0 0 0 0 0 0 0 0 0 0 0
29 64 97 194 204 83 7 10 41 48 0 0 0 0 0 0 0 0 0 0 0 0 0 0 0 0 0 0 0 0 0 0 0 0 0 0 0 0 0 0 0 0 0 0
26 50 91 122 226 167 50 18 23 17 3 0 0 0 0 0 0 0 0 0 0 0 5 6 0 0 0 0 0 0 0 0 0 0 0 0 0 0 0 0 0 0 0 0
17 32 44 61 91 89 20 10 19 28 26 2 0 0 0 0 0 0 0 0 0 0 15 5 0 0 14 0 0 0 0 0 0 0 0 0 0 0 35 1 0 0 0 0
15 30 41 45 53 63 28 1 10 17 0 0 0 0 0 0 0 0 0 0 3 0 4 42 34 26 15 11 2 56 44 0 0 0 0 0 21 71 117 173 110 230 88 168
6 15 27 30 38 55 28 0 0 16 5 0 0 0 0 0 0 0 0 0 0 2 0 0 3 2 14 19 4 56 50 62 12 0 0 17 28 154 406 669 606 508 565 784
0 0 18 34 36 36 38 11 3 4 0 0 0 0 0 0 0 2 0 0 0 0 0 0 0 0 19 26 18 44 70 111 75 61 10 25 108 225 326 601 673 634 630 821
0 0 0 21 23 40 31 18 0 0 0 0 1 0 0 0 0 0 0 0 1 2 0 0 0 1 0 8 44 12 3 124 51 96 36 20 83 294 267 405 773 599 634 934
0 0 0 9 28 44 26 0 0 0 0 0 0 0 0 3 11 2 0 2 8 1 0 0 7 1 5 1 0 0 66 209 108 18 58 4 17 175 318 326 670 839 889 922
0 0 0 0 0 38 0 0 0 0 0 0 0 0 0 1 8 15 11 6 12 6 0 0 0 0 0 0 7 36 98 38 119 307 75 0 0 59 2 607 404 472 501 378
0 0 0 0 0 0 0 0 0 0 0 0 0 0 0 0 2 7 3 20 16 20 0 0 0 0 0 0 12 33 8 26 7 137 61 0 32 14 74 408 264 147 220 116
0 0 0 0 0 0 0 0 0 0 0 0 0 0 0 0 0 3 24 0 0 0 0 0 0 0 0 0 3 3 3 24 30 16 130 15 0 12 114 77 180 154 139 55
0 0 0 0 0 0 0 0 0 0 0 0 0 0 0 0 0 0 4 0 0 0 0 0 0 0 5 0 0 0 23 48 48 80 235 46 9 28 48 7 3 4 35 42
0 0 0 0 0 0 0 0 0 0 0 0 0 0 0 0 0 0 0 0 0 0 0 0 0 0 0 0 2 18 108 91 57 48 120 29 7 26 29 2 3 0 0 0
0 0 0 0 0 0 0 1 6 0 0 0 0 0 0 0 0 0 0 0 0 0 0 0 0 0 0 0 0 21 21 18 29 58 37 8 0 4 5 0 0 0 0 0
0 0 0 0 0 0 0 0 1 0 0 0 0 0 0 0 0 0 0 0 0 0 0 0 0 0 0 0 0 10 18 25 30 1 3 106 7 5 2 3 11 9 11 7
0 0 0 0 0 0 0 0 0 0 0 0 0 0 0 0 0 0 0 0 0 0 0 0 0 0 0 0 0 0 4 0 0 0 0 0 0 95 22 28 7 10 2 43
0 0 0 0 0 0 0 0 0 0 0 0 0 0 0 0 0 0 0 0 0 0 0 0 0 0 0 0 0 0 0 0 0 12 25 40 4 1 41 36 22 39 48 59
0 1 0 0 0 0 0 0 0 0 0 0 0 0 0 0 0 0 0 0 0 0 0 0 0 0 0 0 5 0 0 0 0 13 9 5 0 8 6 12 19 13 20 59
16 13 5 0 0 0 0 0 0 0 0 0 0 0 0 0 0 0 0 0 0 0 0 0 0 0 5 0 22 0 1 9 13 24 24 22 22 3 13 5 5 5 15 37
27 21 0 0 0 0 0 0 0 0 0 0 0 0 0 0 0 0 0 0 0 0 11 2 1 2 29 11 0 0 8 8 15 0 0 0 4 30 15 6 6 4 5 6

GFSNW_con_mucape_021.txt.gz
CAPE
43 54 42 16 0 0 0 0 0 0 0 0 0 0 0 0 0 0 0 0 0 0 0 0 0 0 0 0 0 0 0 0 0 0 0 0 0 0 0 0 0 0 0 0
49 54 34 8 0 0 7 0 0 0 0 0 0 0 0 0 11 12 1 0 0 0 0 0 0 0 0 0 0 0 0 0 0 0 0 0 0 0 0 0 0 0 0 0
38 56 45 13 0 0 0 0 0 0 0 0 0 0 0 1 0 16 0 10 0 0 0 0 0 0 0 0 0 0 0 0 0 0 0 0 0 0 0 0 0 0 0 0
32 58 56 42 4 0 0 0 0 0 0 0 0 11 0 7 4 0 0 0 0 0 0 0 0 0 0 0 0 0 0 0 0 0 0 0 0 0 0 0 0 0 0 0
32 47 58 49 35 0 4 16 0 0 6 0 17 0 0 12 13 8 0 90 0 0 0 0 0 0 0 0 0 0 0 0 0 0 0 0 0 0 0 0 0 0 0 0
0 16 44 54 31 0 1 0 28 10 1 5 31 14 0 0 22 0 17 13 5 16 0 1 0 0 0 0 0 0 0 0 0 0 0 0 0 0 0 0 0 0 0 0
2 0 37 68 56 16 36 69 63 34 0 24 1 0 0 0 0 0 0 0 0 0 0 0 0 0 0 0 0 0 0 0 0 0 0 0 0 0 0 0 0 0 0 0
3 10 22 1 65 40 16 18 61 0 0 0 0 0 0 0 1 0 0 2 4 3 0 0 0 0 0 0 0 0 0 0 0 0 0 0 0 0 0 0 0 0 0 0
1 6 0 0 19 43 15 19 13 0 0 0 0 0 0 0 0 0 0 0 0 0 95 47 0 0 0 0 0 0 0 0 0 0 0 0 0 0 0 0 0 0 0 2
0 2 0 3 0 56 21 0 0 0 0 0 0 0 0 0 0 0 0 0 0 42 10 0 0 0 7 0 0 0 0 0 0 0 0 0 0 0 65 10 0 0 0 0
0 4 0 2 0 0 8 0 0 57 0 0 0 0 0 0 0 0 0 0 16 44 59 39 11 15 42 29 0 0 0 0 0 0 0 0 0 0 0 91 62 38 25 0
3 0 0 0 5 0 70 0 0 8 0 0 0 0 0 0 0 0 0 4 13 20 42 16 5 39 34 35 0 19 0 0 0 0 0 0 0 0 11 117 87 65 26 57
8 0 0 0 3 4 66 0 0 0 0 0 0 0 0 0 0 0 0 0 0 0 27 0 83 20 29 4 2 36 52 75 27 0 0 0 0 0 20 82 60 42 32 114
6 0 0 0 3 0 0 0 0 0 0 0 1 0 0 0 0 0 0 0 0 0 0 0 0 0 23 0 0 24 27 3 18 41 4 0 0 0 25 95 29 68 71 244
0 0 0 0 0 0 0 0 0 0 0 0 0 0 0 0 0 1 0 0 0 0 0 0 0 0 2 0 0 0 0 2 18 0 24 30 0 25 100 93 133 76 46 332
0 0 0 0 0 0 0 0 0 0 0 0 0 0 0 0 0 0 4 2 7 0 0 0 0 0 0 0 0 0 0 0 5 46 13 6 10 7 14 97 208 123 143 487
0 0 0 0 0 0 0 0 0 0 0 0 0 0 0 0 0 2 2 15 1 0 0 0 0 0 0 0 3 0 0 0 0 32 13 0 3 4 123 216 197 177 123 315
0 0 0 0 0 0 0 0 0 0 0 0 0 0 0 0 0 0 14 0 0 0 0 0 0 0 0 0 0 0 0 0 0 4 1 0 10 48 91 61 168 132 128 115
0 0 0 0 0 0 0 0 0 0 0 1 0 0 0 0 0 0 0 0 0 0 0 0 0 1 7 3 5 0 1 3 1 4 29 37 29 80 40 80 145 75 78 100
0 0 0 0 0 0 0 0 0 0 0 0 0 0 0 0 0 0 0 0 0 0 0 0 0 22 0 0 0 0 0 2 2 0 4 27 24 105 11 74 3 24 100 110
0 0 0 0 0 0 0 0 0 0 0 0 0 0 0 0 0 0 0 0 0 0 0 0 0 0 0 0 3 11 21 0 33 20 47 13 56 26 0 20 16 20 9 14
0 0 0 0 0 0 0 0 0 0 0 0 0 0 0 0 0 0 0 0 0 0 0 0 2 0 0 0 0 0 0 30 73 43 16 0 34 52 4 66 45 11 37 0
0 0 0 0 0 0 0 0 0 0 0 0 0 0 0 0 0 0 0 0 0 0 0 0 0 0 0 1 0 0 0 0 1 0 6 0 7 35 8 50 52 54 56 44
0 0 0 0 0 0 0 0 0 0 0 0 0 0 0 0 0 0 0 0 0 0 0 0 0 0 0 0 0 0 0 0 0 0 0 3 0 0 0 37 66 71 36 2
0 0 0 0 0 0 0 0 0 0 0 0 0 0 0 0 0 0 0 0 0 0 0 0 0 0 0 0 0 0 2 0 1 0 2 17 9 1 1 2 24 10 16 5
15 2 0 0 0 0 0 0 1 2 0 0 0 0 0 0 0 0 0 0 0 0 0 0 0 0 0 0 0 0 0 0 0 0 0 0 13 17 11 11 6 18 26 35
1 0 0 0 0 0 0 0 0 0 0 0 0 0 0 0 0 0 0 0 0 0 0 0 0 0 0 0 0 0 0 0 0 0 0 0 0 0 0 0 0 21 9 0

GFSNW_con_mucape_024.txt.gz
CAPE
25 33 26 6 0 0 0 0 0 0 0 15 9 20 0 0 25 46 39 7 0 0 0 0 0 0 0 0 0 0 0 0 0 0 0 0 0 0 0 0 0 0 0 0
27 29 24 0 0 0 1 0 0 0 0 15 27 33 27 16 45 45 52 52 40 8 0 0 0 0 0 0 0 0 0 0 0 0 0 0 0 0 0 0 0 0 0 0
25 29 27 7 0 0 3 5 0 6 21 27 43 38 65 52 42 42 23 60 60 27 0 0 0 0 0 0 0 0 0 0 0 0 0 0 0 0 0 0 0 0 0 0
12 27 28 0 0 0 18 6 0 16 16 35 35 40 69 38 27 52 56 21 0 0 0 0 0 0 0 0 0 0 0 0 0 0 0 0 0 0 0 0 0 0 0 0
4 9 23 36 0 0 4 0 0 20 16 30 44 19 72 35 19 31 50 26 0 0 1 0 0 0 0 0 0 0 0 0 0 0 0 0 0 0 0 0 0 0 0 0
2 2 16 41 0 0 0 4 42 58 7 22 63 54 13 22 21 58 51 39 10 0 0 0 0 3 0 0 0 0 0 0 0 0 0 0 0 0 0 0 0 0 0 0
1 2 8 27 17 0 56 36 66 42 0 0 0 5 12 5 5 9 24 32 33 32 11 1 7 6 0 0 0 0 0 0 0 0 0 0 0 0 0 0 0 0 0 0
1 3 8 17 0 0 0 84 11 0 0 0 0 0 0 17 8 2 21 37 64 39 37 73 19 1 0 0 0 0 0 0 0 0 0 0 0 0 0 0 0 0 0 0
1 3 9 19 4 0 0 0 80 0 0 0 0 0 0 26 27 17 16 21 53 76 116 85 1 0 0 0 0 0 0 0 0 0 0 0 0 0 0 0 0 0 0 0
1 8 14 0 2 0 0 0 0 0 0 0 0 0 0 0 0 33 19 20 43 64 139 113 37 0 26 0 0 0 0 0 0 0 0 0 0 0 41 0 94 28 5 1
4 12 9 0 1 6 0 0 0 0 0 0 0 0 0 0 0 51 25 23 33 105 153 79 58 69 75 32 14 0 0 0 0 0 0 0 0 0 0 53 63 22 22 4
10 4 6 0 0 5 1 0 0 0 0 0 0 0 0 0 0 4 5 21 25 32 135 146 162 85 75 66 0 56 0 0 0 0 0 0 0 0 0 0 0 0 0 0
10 2 13 0 0 0 0 0 0 0 0 0 0 6 0 6 13 1 3 4 0 13 30 18 90 68 95 76 49 80 71 52 0 0 0 0 0 0 0 0 0 0 0 0
1 1 0 0 0 0 0 0 0 0 0 0 0 0 0 5 0 21 24 22 6 1 37 75 0 0 42 101 87 73 70 67 19 0 36 19 12 0 0 0 9 1 0 2
0 0 0 0 0 0 0 0 0 0 0 0 0 0 0 0 1 0 6 13 0 0 0 0 0 0 0 36 0 8 9 9 10 0 22 31 34 22 9 21 3 2 2 0
0 0 0 0 0 0 0 0 0 0 0 0 0 0 0 0 0 0 0 3 2 0 0 0 0 0 0 0 0 6 8 17 11 46 83 82 74 51 0 0 0 0 4 83
0 0 0 0 0 0 0 0 0 0 0 0 0 0 0 0 0 0 0 6 1 0 0 0 0 0 0 0 0 1 0 24 34 22 22 29 22 18 11 36 19 16 85 129
0 0 0 0 0 0 0 0 0 0 0 0 0 0 0 0 0 0 0 0 0 0 0 0 0 0 0 0 0 0 0 0 0 0 0 0 28 27 4 12 163 137 105 51
0 0 0 0 0 0 0 0 0 0 0 0 0 0 0 0 0 0 0 0 0 0 0 0 0 0 0 0 0 0 1 0 0 0 0 0 49 43 25 33 50 1 52 103
0 0 0 0 0 0 0 0 0 0 0 0 0 0 0 0 0 0 0 0 0 0 0 0 0 0 0 0 1 0 0 2 1 4 41 43 76 120 70 28 0 0 80 73
0 0 0 0 0 0 0 0 0 0 0 0 0 0 0 0 0 0 0 0 0 0 0 0 0 0 0 0 0 8 14 6 7 24 52 76 132 61 23 0 84 67 0 0
0 0 0 0 0 0 0 0 0 0 0 0 0 0 0 0 0 0 1 0 0 0 0 0 0 0 0 0 0 0 7 25 33 26 41 55 82 21 12 0 0 3 3 4
0 0 0 0 0 0 0 0 0 0 0 0 0 0 48 34 21 90 86 0 0 72 0 0 0 0 0 0 0 0 0 0 0 0 0 0 0 6 8 0 24 30 0 0
0 0 0 0 0 0 0 0 0 0 0 0 22 28 3 21 0 0 0 33 0 0 0 0 0 0 0 0 0 0 0 0 0 0 1 0 0 0 0 0 0 0 0 0
0 0 1 0 0 0 0 0 0 0 0 21 74 59 7 13 7 0 0 0 0 0 0 0 0 0 0 0 0 0 0 0 0 0 0 0 0 0 1 2 0 1 0 0
1 1 1 2 0 0 0 0 0 0 3 51 21 19 12 52 0 0 0 0 0 0 0 0 0 0 0 0 0 0 0 0 0 0 0 0 0 0 0 1 1 10 7 5
6 23 5 3 3 2 0 0 0 0 0 1 8 0 0 0 0 0 0 0 0 0 0 0 0 0 0 0 0 0 0 0 0 0 0 0 0 0 0 0 0 0 0 0

GFSNW_con_mucape_027.txt.gz
CAPE
8 16 11 0 0 0 0 0 0 0 0 37 40 41 44 14 18 67 52 34 0 12 0 0 0 8 0 0 0 0 0 0 0 0 0 0 0 0 0 0 0 0 0 0
7 12 6 0 0 0 0 0 0 7 0 32 88 70 70 105 139 75 69 36 13 32 0 0 0 0 0 0 0 0 1 0 0 1 0 0 0 0 0 0 0 0 0 0
8 10 12 6 0 0 0 0 0 4 21 41 60 67 118 97 83 65 55 97 45 4 0 0 0 0 0 0 0 0 0 0 0 0 0 0 0 0 0 0 0 0 0 0
6 9 14 12 4 0 0 0 0 13 23 38 45 80 69 145 85 72 75 136 42 32 0 0 0 0 0 0 0 0 0 0 0 0 4 0 0 0 0 0 0 0 0 0
4 8 13 23 34 0 0 0 0 0 27 20 51 90 104 72 82 83 96 67 49 26 52 21 0 0 0 0 0 0 0 0 0 0 0 0 0 0 0 0 0 0 0 0
5 4 10 18 36 0 0 6 0 0 15 26 44 49 57 50 18 82 98 56 34 55 49 44 28 0 0 0 0 0 0 0 21 5 0 0 0 0 0 0 0 0 0 0
4 4 10 17 28 9 0 0 0 0 0 0 30 26 30 49 46 57 26 56 121 93 57 19 13 4 0 0 0 0 0 0 0 0 5 0 0 0 0 0 0 0 0 0
3 4 12 21 29 45 0 0 0 0 0 0 33 19 26 20 26 61 114 81 81 88 62 60 78 35 0 0 0 0 0 0 0 0 0 0 0 0 0 0 0 0 0 0
7 6 11 22 28 12 0 0 0 0 0 0 0 39 31 27 59 136 146 130 83 74 112 92 79 48 43 0 0 0 0 0 0 0 0 0 12 0 0 0 0 0 0 0
9 11 8 14 34 0 1 0 0 0 0 0 0 32 44 46 49 40 35 67 120 116 133 130 122 33 58 19 18 1 0 0 0 0 0 0 19 29 12 0 312 180 11 7
10 4 7 20 0 0 2 0 0 0 0 0 0 0 0 44 18 48 62 108 152 78 141 138 91 60 117 63 9 19 0 0 0 0 0 0 0 0 55 26 84 36 25 21
0 0 13 0 0 0 0 0 0 1 0 0 0 0 20 22 21 29 41 48 55 52 163 263 231 137 68 73 27 21 1 10 0 0 0 9 0 1 1 0 55 31 1 3
0 0 0 0 0 0 0 0 0 0 0 0 0 0 0 24 6 26 1 28 25 28 28 58 85 101 150 120 66 36 66 37 7 0 0 0 0 0 0 0 0 0 0 0
0 0 0 0 0 0 0 0 0 0 0 0 0 2 0 2 17 17 16 28 14 11 45 74 92 68 105 124 85 101 76 53 33 6 0 1 2 2 0 0 0 0 0 1
0 0 0 0 0 0 0 0 1 0 0 0 0 0 0 15 9 13 7 8 7 0 0 0 0 11 18 31 42 28 81 73 13 2 41 30 5 1 0 0 0 0 0 0
0 0 0 0 0 0 0 0 0 4 0 0 0 0 0 0 0 0 1 0 0 0 0 0 0 0 0 0 19 14 48 61 73 84 46 41 53 39 26 0 8 0 0 0
0 0 0 0 0 0 0 0 0 0 0 0 0 0 0 0 0 0 0 0 0 0 0 0 0 0 0 0 0 3 0 25 55 19 29 99 70 62 81 36 26 5 0 0
0 0 0 0 0 0 0 0 0 0 0 0 1 0 0 0 0 0 0 0 0 0 0 0 0 0 0 4 0 0 0 1 0 42 29 18 42 26 24 4 59 69 59 37
0 0 0 0 0 0 0 0 0 0 0 0 0 0 0 0 0 0 0 0 0 0 0 0 0 0 0 18 0 0 0 0 0 0 6 7 11 38 22 12 43 25 14 83
0 0 0 0 0 0 0 0 0 0 0 0 0 0 0 0 0 0 0 0 0 0 0 0 0 0 0 0 17 3 0 0 0 0 0 0 0 5 16 16 32 15 109 6
1 7 3 0 0 0 0 0 0 0 0 0 0 0 0 0 0 0 0 0 0 0 0 0 0 0 0 0 0 2 4 0 4 9 14 27 52 85 105 110 128 109 29 12
0 0 0 0 0 0 0 0 0 0 233 60 41 119 0 0 5 0 0 16 0 0 0 0 0 0 0 0 0 0 0 0 0 14 8 34 71 232 182 70 57 34 5 6
0 0 0 1 0 0 0 0 0 0 0 19 35 200 57 78 7 125 106 0 0 0 0 0 0 0 0 0 0 0 0 0 0 0 0 3 11 31 22 3 15 43 0 0
0 0 15 13 3 1 2 30 23 34 21 54 89 367 150 113 93 63 0 29 0 0 0 0 0 10 112 77 2 0 0 0 0 0 0 1 0 0 0 0 0 0 0 0
1 3 70 22 16 18 31 29 30 13 25 160 141 109 118 63 40 34 48 26 0 0 0 0 0 97 99 67 53 44 12 0 0 0 0 0 0 0 0 0 0 0 0 0
3 6 5 7 3 2 1 2 1 4 26 359 64 54 56 26 20 0 0 0 0 0 0 0 48 53 64 66 23 19 2 1 0 0 0 0 0 0 0 0 0 0 0 0
8 14 9 6 0 0 1 1 0 3 10 35 27 14 18 12 31 12 0 0 2 38 0 0 30 64 58 3 0 0 0 3 3 8 32 0 8 6 0 0 0 0 0 0

GFSNW_con_mucape_030.txt.gz
CAPE
0 1 3 0 0 0 0 0 0 0 0 1 4 21 12 21 61 98 25 14 2 0 12 2 0 0 0 0 0 0 0 0 0 0 0 0 0 0 0 0 0 0 0 13
3 0 0 0 0 0 0 0 3 5 0 0 0 12 18 20 103 107 42 25 39 3 0 23 0 0 0 0 0 0 1 0 0 0 4 0 0 0 0 0 0 0 0 0
4 2 0 0 0 0 0 0 0 3 0 10 26 32 30 65 110 151 73 55 77 41 0 0 2 1 0 0 0 0 0 0 0 0 0 0 0 0 0 0 0 0 0 0
4 4 6 2 0 0 0 0 0 0 0 5 22 28 82 100 141 56 34 90 75 60 0 0 0 0 0 0 0 0 0 0 0 0 0 7 0 0 0 0 0 0 0 0
6 4 10 12 13 1 1 0 0 0 0 31 30 41 78 149 93 44 40 120 101 27 19 0 0 0 0 0 0 0 0 0 0 6 1 1 4 0 0 0 0 0 0 2
4 3 9 13 17 25 0 0 0 0 0 0 20 75 77 45 111 123 84 74 52 15 30 25 11 1 0 0 0 0 0 0 0 0 1 0 2 2 0 0 0 0 0 11
3 7 14 16 24 29 91 0 0 0 0 0 0 40 72 82 73 58 47 78 79 79 42 11 1 0 0 0 0 0 2 0 0 0 33 6 0 3 1 0 0 0 0 43
6 9 16 19 27 27 113 0 0 0 0 0 0 29 57 94 59 76 157 169 170 86 57 46 9 0 0 0 0 0 0 0 0 0 30 0 9 0 0 0 1 5 4 12
0 4 3 14 28 28 96 0 0 0 0 0 0 26 26 58 112 75 101 132 127 115 53 26 2 0 93 0 0 0 0 0 0 0 45 4 0 0 0 0 1 402 40 0
0 0 0 21 28 0 0 0 0 0 0 0 0 0 29 49 81 106 75 133 125 59 44 67 18 0 0 5 0 0 0 0 0 0 0 0 0 0 0 10 121 85 97 113
0 0 0 0 0 0 0 0 0 0 0 0 0 0 0 9 46 65 63 62 145 183 174 168 126 6 43 14 1 0 0 0 0 0 0 0 0 0 26 62 83 8 0 0
0 0 0 0 0 0 0 0 0 0 0 0 0 0 0 0 28 55 38 26 32 26 48 124 28 48 19 31 4 0 0 24 0 0 1 62 0 0 0 0 87 55 0 0
0 0 0 0 0 0 0 0 0 0 0 0 0 0 10 3 21 38 0 28 31 33 18 21 9 27 44 52 0 0 0 3 0 0 0 0 0 0 0 0 0 66 12 0
0 0 0 0 0 0 0 0 0 0 0 0 0 24 0 15 13 14 24 16 12 31 33 33 50 24 36 23 0 0 2 0 2 0 0 0 0 0 0 0 0 27 44 16
0 0 0 0 0 0 0 0 0 0 0 0 0 0 0 7 24 15 42 0 0 0 0 0 0 8 8 14 2 0 0 0 0 1 20 49 18 0 0 0 0 0 12 4
0 0 0 0 0 0 0 0 0 0 0 0 0 0 0 0 0 0 0 2 55 91 0 0 0 0 0 0 9 0 10 16 10 1 0 0 0 0 0 0 0 0 0 0
0 0 0 0 0 0 0 0 0 0 0 0 0 6 0 0 0 0 0 0 0 0 0 0 0 0 0 0 0 0 1 0 4 0 2 1 0 0 0 0 0 0 0 0
0 0 0 0 0 0 0 0 0 0 0 0 0 0 0 0 0 0 0 0 0 0 0 0 0 0 0 0 11 4 1 0 0 0 0 0 1 2 27 13 0 0 0 0
0 0 0 0 0 0 0 0 0 0 0 0 0 0 0 0 0 0 0 0 0 0 0 0 0 0 0 0 0 0 0 0 0 0 0 0 0 3 7 3 1 1 0 0
0 0 0 1 0 0 0 0 0 0 0 0 2 11 1 0 0 0 0 0 0 0 0 0 0 0 0 0 0 0 0 0 0 0 0 0 21 24 26 24 16 3 0 6
0 34 10 0 0 0 0 23 18 40 92 6 28 5 7 0 0 0 0 0 0 0 0 0 0 0 0 0 0 0 0 0 0 0 0 0 0 0 3 13 18 31 86 104
0 0 0 2 10 4 9 7 17 12 55 23 25 24 96 9 0 0 16 63 78 0 7 0 0 0 0 0 0 0 0 0 10 13 22 6 22 19 26 28 33 42 82 94
69 0 5 2 5 4 10 13 23 48 23 55 55 370 131 301 9 192 201 14 0 35 0 0 0 71 89 0 0 0 0 0 2 0 0 26 24 8 52 66 105 90 86 67
39 0 0 3 12 27 20 35 29 50 47 120 105 201 90 68 69 17 47 34 7 0 0 0 44 131 88 74 27 0 0 0 0 0 0 0 0 0 0 14 63 36 16 7
1 9 8 22 12 11 5 6 9 9 29 166 243 126 122 48 8 11 19 32 0 0 0 22 99 149 121 74 3 17 7 0 0 0 0 0 0 0 0 0 0 0 0 0
2 7 12 2 0 0 0 1 4 5 24 142 83 8 25 20 33 8 7 8 0 30 55 35 66 149 118 92 65 0 6 3 41 67 37 0 0 0 0 0 0 0 0 0
19 19 12 1 0 0 0 0 0 1 10 18 37 12 10 14 20 33 54 0 73 66 79 46 101 128 65 82 51 28 31 6 0 51 12 77 42 9 7 0 0 0 0 0

GFSNW_con_mucape_033.txt.gz
CAPE
2 1 2 0 0 0 0 0 0 0 0 0 0 0 0 0 1 0 16 39 4 0 0 0 1 6 2 0 0 0 0 0 0 0 0 0 0 0 0 0 0 0 0 0
6 3 1 0 0 0 0 0 0 0 0 0 0 0 0 1 1 11 7 25 16 5 38 0 1 3 0 0 0 0 0 0 0 0 0 0 0 0 0 0 0 0 0 0
8 4 4 0 0 0 0 0 0 0 0 0 0 0 0 3 24 18 22 0 3 29 33 5 0 0 0 0 0 0 0 0 0 0 0 0 0 0 0 0 0 0 0 0
9 6 8 7 0 0 0 0 0 0 0 0 0 0 14 13 40 26 27 13 48 13 4 0 0 0 0 0 0 0 0 0 0 0 0 0 6 0 0 0 0 0 0 0
12 8 13 17 12 0 0 0 0 0 0 0 0 0 19 32 52 43 20 56 33 11 7 0 0 0 0 0 0 0 0 0 0 0 0 4 4 0 0 0 0 0 0 0
0 3 13 18 19 17 2 22 0 0 0 0 0 0 15 16 35 18 59 25 4 28 36 50 15 0 0 0 0 0 0 0 0 0 12 26 1 0 0 0 0 0 0 0
0 0 0 12 23 33 64 0 0 0 0 0 0 0 0 13 38 32 82 38 22 76 37 29 1 0 0 0 0 0 1 0 0 8 23 2 0 5 6 0 0 0 0 9
0 0 0 0 0 27 6 0 0 0 0 0 0 0 0 2 14 80 76 45 46 4 37 5 0 0 0 0 0 0 0 0 0 33 18 0 3 4 8 4 13 19 325 196
0 0 0 0 36 0 0 0 1 0 0 0 0 0 0 0 16 18 36 63 28 42 18 19 0 0 0 0 0 0 0 0 0 7 8 13 42 0 0 0 19 66 390 354
0 0 0 0 0 0 0 0 0 0 0 0 0 0 0 0 0 6 18 34 29 3 5 10 3 0 1 0 0 0 0 0 3 1 9 11 22 0 0 7 14 80 408 328
0 0 0 0 0 0 0 0 2 0 0 0 0 0 0 0 0 0 17 0 20 63 40 9 0 0 0 1 0 0 0 0 12 10 7 35 29 1 5 0 1 43 195 428
0 0 0 0 0 0 0 0 1 3 0 0 0 0 0 0 0 0 5 21 23 36 4 6 0 0 0 0 0 0 0 0 4 21 19 0 0 0 0 0 8 32 40 98
0 0 0 0 0 0 0 0 0 0 0 0 0 0 0 0 26 21 0 9 21 38 33 4 0 0 0 0 0 0 1 0 0 1 0 0 0 0 0 0 16 35 0 0
0 0 0 0 0 0 0 0 1 0 0 0 0 0 0 9 13 14 3 10 10 2 7 5 13 1 0 0 0 0 0 0 0 0 0 0 0 0 0 0 0 37 0 0
0 0 0 0 0 0 0 0 0 0 0 0 0 0 0 0 3 0 5 9 9 0 0 0 0 0 0 0 0 0 0 0 0 0 0 0 0 0 0 0 0 17 0 0
0 0 0 0 0 0 0 0 0 0 0 0 0 0 0 0 0 0 0 0 0 0 0 0 0 0 0 0 0 0 0 0 0 0 0 0 0 0 0 0 0 0 0 0
0 0 0 0 0 0 0 0 0 0 0 0 0 0 0 0 5 0 0 0 0 0 0 0 0 0 0 0 0 0 0 0 0 0 0 0 0 0 0 0 0 0 0 0
0 0 0 0 0 0 0 0 0 0 0 0 0 0 0 0 0 0 0 0 0 0 0 0 0 0 0 0 0 0 0 0 0 0 0 0 0 0 0 0 0 0 0 0
0 0 0 0 0 0 0 0 0 0 0 0 23 17 0 0 0 0 0 0 0 0 0 0 0 0 0 0 0 0 0 0 0 0 0 0 0 0 0 0 0 0 0 0
0 0 0 0 0 0 0 0 0 0 0 5 13 17 18 2 0 0 0 0 0 0 0 0 0 0 0 0 0 0 0 0 0 0 0 0 0 0 0 0 0 0 0 0
0 6 36 0 0 0 3 19 4 18 24 8 8 3 2 6 1 3 0 0 0 0 0 0 0 0 0 0 0 0 0 3 2 0 0 8 22 11 0 0 3 2 1 0
0 0 4 0 0 5 14 25 30 76 84 115 26 33 34 33 18 12 22 12 5 0 2 0 0 0 34 0 0 0 0 1 0 3 0 0 0 2 7 4 7 2 0 0
70 239 95 30 16 11 19 8 18 138 125 105 61 247 347 86 18 22 107 44 13 44 0 0 0 36 51 14 0 0 0 0 0 0 0 1 6 11 9 10 19 18 3 14
405 288 1 22 105 100 34 17 19 13 0 24 426 698 404 367 184 82 59 23 1 0 0 0 29 42 40 41 0 0 0 0 0 0 0 0 0 0 0 20 18 22 57 68
293 121 62 78 14 7 2 2 1 0 0 60 186 343 138 80 16 23 0 1 0 23 0 43 41 55 22 25 31 0 0 0 46 5 0 0 0 0 0 0 0 0 2 1
299 89 19 0 0 0 0 0 0 0 7 90 155 37 31 8 28 15 6 0 0 46 59 60 57 68 44 42 13 29 23 8 7 48 14 0 0 0 0 0 0 0 0 0
301 235 35 0 0 0 0 0 0 0 7 0 61 0 0 37 5 3 51 71 86 57 91 58 93 67 68 55 24 33 40 25 13 10 52 7 9 0 0 0 0 0 0 0

GFSNW_con_mucape_036.txt.gz
CAPE
5 3 6 2 0 0 0 0 0 0 0 0 0 0 0 0 0 0 0 0 5 1 22 17 0 5 0 0 5 2 2 0 0 0 0 0 0 0 0 0 0 0 0 0
12 7 4 1 0 0 0 0 0 0 0 0 0 0 0 0 0 0 0 0 0 0 39 33 47 0 0 0 14 7 3 0 0 0 0 0 6 0 0 0 0 0 0 0
10 5 3 0 0 0 0 0 0 0 0 0 0 0 0 0 0 0 3 0 0 0 4 46 52 0 0 0 0 0 0 0 0 0 0 0 0 0 0 0 0 0 0 0
0 0 0 0 0 0 0 0 0 0 0 0 0 0 0 0 0 0 15 0 15 9 1 0 41 9 0 0 0 0 0 0 0 0 0 0 0 0 0 0 0 0 0 0
0 0 0 0 0 0 0 0 0 0 0 0 0 0 0 0 0 8 0 11 7 4 13 3 0 7 0 0 0 0 0 0 0 0 0 0 0 0 0 0 0 0 0 0
0 0 0 0 0 0 0 0 0 0 0 0 0 0 0 0 0 0 25 15 5 7 0 12 0 3 0 0 0 0 0 0 0 0 0 0 0 0 0 0 0 0 0 0
0 0 0 0 0 0 0 0 0 0 0 0 0 0 0 0 0 0 6 12 18 17 0 2 1 0 0 0 0 0 1 0 0 0 5 0 0 3 0 0 0 0 0 41
0 0 0 0 0 0 0 0 0 0 0 0 0 0 0 0 0 0 33 11 6 1 0 0 0 0 0 0 0 0 0 0 0 0 11 0 2 5 0 0 0 0 11 355
0 0 0 0 0 0 0 0 0 0 0 0 0 0 0 0 0 0 0 17 0 4 0 0 0 1 0 0 0 0 2 0 0 21 15 0 4 20 16 0 0 120 289 513
0 0 0 0 0 0 0 0 0 0 0 0 0 0 0 0 0 0 1 0 0 1 8 5 2 0 0 0 0 1 48 0 9 24 22 7 14 37 6 48 3 191 383 280
0 0 0 0 0 0 0 0 0 0 0 0 0 0 0 0 0 0 0 1 0 0 0 1 0 0 0 0 0 13 43 8 0 0 31 50 0 15 14 8 77 73 175 174
0 0 0 0 0 0 0 0 1 7 0 0 0 1 6 0 0 0 0 3 7 18 0 0 0 0 0 0 3 0 12 13 2 0 21 4 0 7 0 8 11 89 119 52
0 0 0 0 0 0 0 0 0 0 0 0 0 0 0 21 13 6 13 0 0 0 13 1 0 0 0 0 0 0 0 0 8 0 1 10 0 0 0 0 82 23 29 22
0 0 0 0 0 0 0 0 0 0 0 0 0 1 0 12 11 10 20 12 0 0 0 0 0 0 0 0 0 0 0 0 0 0 0 0 0 1 0 0 1 9 0 0
0 0 0 0 0 0 0 0 0 0 0 0 0 1 0 0 0 0 0 0 0 0 0 0 0 0 0 0 0 0 0 0 0 2 0 0 0 0 0 0 8 32 0 0
0 0 0 0 0 0 0 0 0 0 0 0 0 7 12 0 0 0 0 0 0 0 0 0 0 0 0 0 0 0 0 0 0 0 0 0 0 0 0 0 0 4 0 0
0 0 0 0 0 0 0 0 0 0 0 0 0 0 0 0 0 0 0 0 0 0 0 0 0 0 0 0 0 0 0 0 0 0 0 0 0 0 0 0 0 0 0 0
0 0 0 0 0 0 0 0 0 0 0 2 6 0 0 0 0 0 0 0 0 0 0 0 0 0 0 0 0 0 0 0 0 0 0 0 0 0 0 0 0 0 0 0
0 0 0 0 0 0 0 0 0 0 0 5 0 4 0 4 0 0 0 0 0 0 0 0 0 0 0 0 0 0 0 0 0 0 0 0 0 0 0 0 0 0 0 0
7 0 0 0 0 0 0 1 0 2 0 0 12 21 27 6 1 0 0 0 0 0 0 0 0 0 0 0 0 0 0 0 0 0 0 0 0 0 0 0 0 0 0 0
0 6 40 0 0 0 4 0 0 3 1 4 23 28 34 31 25 1 0 1 0 0 0 0 0 0 0 0 0 6 0 0 0 0 0 1 4 0 0 0 10 0 0 0
0 0 0 9 3 3 4 3 11 33 41 73 17 38 42 33 53 18 16 10 12 0 0 0 0 0 11 0 0 0 0 0 0 0 0 3 0 4 4 2 0 0 0 3
1 97 3 11 1 15 22 14 1 8 10 19 8 95 104 53 23 30 16 26 2 0 0 0 0 16 16 5 6 0 27 0 0 0 0 0 0 0 0 0 0 0 2 2
45 315 0 0 6 3 0 0 0 0 0 0 25 155 182 117 20 4 19 2 0 0 0 0 10 5 0 0 0 5 4 7 0 0 0 0 0 0 0 1 0 3 6 2
222 0 0 0 0 0 0 0 0 0 0 1 53 12 0 0 0 0 0 0 0 0 0 5 14 0 0 0 0 2 12 24 15 0 0 0 0 0 0 0 0 0 0 1
98 1 1 0 0 0 0 0 0 0 0 0 0 0 0 0 0 0 0 0 0 0 18 16 16 10 0 0 0 0 8 10 40 13 0 0 0 0 0 0 0 0 0 0
17 10 4 2 3 0 0 0 0 0 0 0 0 0 0 0 0 0 0 0 0 0 11 42 11 23 23 0 0 0 0 14 15 56 37 19 8 10 0 0 0 0 0 0

GFSNW_con_mucape_042.txt.gz
CAPE
0 0 0 0 0 0 0 0 0 0 0 0 0 0 0 0 0 0 0 0 0 0 0 0 0 0 0 0 0 0 1 0 0 0 0 0 0 0 0 0 0 0 0 0
0 0 0 0 0 0 0 0 0 0 0 0 0 0 0 0 0 0 0 0 0 0 0 0 0 0 0 0 0 0 0 0 0 0 0 0 0 0 0 0 0 0 0 0
0 0 0 0 0 0 0 0 0 0 0 0 0 0 0 0 0 0 0 0 0 0 0 0 0 0 1 0 0 57 63 12 0 0 0 0 0 1 1 0 0 0 0 0
0 0 0 0 0 0 0 0 0 0 0 0 0 0 0 0 0 0 0 0 0 0 0 0 0 0 0 23 70 47 0 0 0 0 0 0 0 0 3 0 1 0 0 0
0 0 0 0 0 0 0 0 0 0 0 0 0 0 0 0 0 0 0 0 0 0 0 0 0 0 0 2 15 44 24 0 0 0 0 0 0 0 0 0 0 0 0 0
0 0 0 0 0 0 0 0 0 0 0 0 0 0 0 0 0 0 0 0 0 0 0 0 0 0 5 7 20 16 8 0 0 0 8 0 0 0 0 0 0 0 0 0
0 0 0 0 0 0 0 0 0 0 0 0 0 0 0 0 0 0 0 0 0 0 10 0 0 0 8 4 1 0 2 0 0 0 18 0 0 0 0 0 0 0 0 0
0 0 0 0 0 0 0 0 3 0 0 0 0 0 0 0 0 0 0 0 12 8 1 0 0 0 0 0 0 1 0 0 1 0 13 0 20 4 3 9 3 0 12 271
0 0 0 0 0 0 0 0 5 0 0 0 0 0 0 0 0 0 0 0 0 0 0 0 0 0 0 0 2 0 0 0 8 37 56 5 1 3 1 0 4 5 60 328
0 0 0 0 0 0 0 0 3 0 0 0 0 0 0 0 0 0 0 1 0 0 0 0 0 0 0 0 12 5 0 6 11 79 33 48 5 1 1 30 0 14 64 187
0 0 0 0 0 0 0 0 4 0 0 0 0 0 0 0 0 0 0 0 0 0 0 0 0 0 0 0 0 0 13 64 73 82 47 75 67 18 8 0 8 28 133 238
0 0 0 0 0 0 0 0 0 0 0 0 0 4 10 17 0 0 0 0 0 0 0 0 0 0 0 0 0 0 3 11 26 55 56 25 91 45 12 1 39 80 221 290
0 0 0 0 0 0 0 0 0 0 0 0 0 0 0 5 9 13 1 0 0 0 0 0 0 0 0 0 0 0 0 0 72 18 13 126 112 99 19 40 33 108 172 302
0 0 0 0 0 0 0 0 0 0 0 0 0 0 0 0 0 0 0 0 0 0 0 0 0 0 0 0 0 0 0 0 0 5 28 79 96 88 52 74 114 148 167 299
0 0 0 0 0 0 0 0 0 0 0 0 0 0 0 0 0 0 0 0 0 0 0 0 0 0 0 0 0 0 0 0 0 86 36 52 56 34 72 62 65 172 223 323
0 0 0 0 0 0 0 0 5 4 0 0 0 0 0 0 0 0 0 0 0 0 0 0 0 0 0 0 0 0 0 0 0 2 1 10 4 60 116 150 150 60 132 337
0 0 0 0 0 0 0 0 3 11 14 1 1 0 0 7 8 2 0 0 0 0 0 0 0 0 0 0 0 1 0 0 0 0 0 4 0 0 8 92 125 42 17 160
0 0 0 0 0 0 0 0 14 16 9 3 11 11 5 22 38 26 29 0 0 0 0 0 0 0 0 0 0 0 0 0 0 0 0 0 0 0 0 0 8 12 0 9
0 0 0 0 0 2 0 0 0 15 1 28 19 14 23 16 22 12 0 0 0 0 0 0 0 0 0 0 0 0 0 0 0 0 0 0 0 0 0 0 0 1 2 0
0 0 0 0 0 0 0 0 0 1 0 7 8 7 17 12 2 6 0 0 0 0 0 2 0 0 0 0 17 26 0 0 0 0 0 0 0 0 0 0 0 0 0 0
0 0 0 0 0 0 0 0 0 0 3 2 0 4 11 8 0 1 0 0 0 0 0 0 0 0 0 0 7 28 27 7 0 0 0 0 0 0 0 0 0 0 0 0
0 0 0 0 46 17 0 0 0 0 0 0 0 3 16 14 5 8 4 0 0 0 0 0 0 0 0 0 0 42 23 32 5 0 0 0 0 0 0 0 0 0 0 0
0 0 36 0 0 0 0 0 0 0 0 0 0 0 21 30 10 21 5 0 0 0 0 0 0 23 34 8 1 2 32 34 21 0 0 0 0 0 0 0 0 0 0 0
0 63 1 0 1 7 0 0 0 0 0 0 0 14 27 10 0 0 0 0 0 0 0 0 0 6 16 8 0 0 0 18 13 0 0 0 0 0 0 0 0 0 0 0
0 1 0 2 15 14 0 0 0 0 0 0 0 0 0 0 0 0 0 0 0 0 0 0 12 12 0 0 0 0 0 4 17 2 0 0 0 0 0 0 0 0 0 0
0 1 0 12 16 6 2 0 0 0 0 0 0 0 0 0 0 0 0 0 0 0 0 0 2 18 10 7 0 0 0 0 12 25 10 4 0 0 1 13 1 0 0 0
0 1 10 19 25 12 0 0 0 0 0 0 0 0 0 0 0 0 0 0 0 0 0 0 4 17 20 14 5 0 0 0 0 10 29 36 41 26 22 9 0 0 0 0

GFSNW_con_mucape_045.txt.gz
CAPE
0 0 0 0 0 0 0 0 0 0 0 0 0 0 0 0 0 0 0 0 0 0 0 0 0 0 0 0 0 0 0 0 0 0 0 0 0 0 0 43 0 0 0 0
0 0 0 0 0 0 0 0 0 0 0 0 0 0 0 0 0 0 0 0 0 0 0 0 0 0 0 0 0 0 0 0 0 0 0 0 0 0 0 0 0 0 0 0
0 0 0 0 0 0 0 0 0 0 0 0 0 0 0 0 0 0 0 0 0 0 0 0 0 0 20 18 10 25 3 0 0 0 0 0 0 0 0 0 1 0 0 0
0 0 0 0 0 0 0 0 0 0 0 0 0 0 0 0 0 0 0 0 0 0 0 0 0 0 0 41 42 53 30 0 0 0 0 0 0 0 0 0 0 10 1 5
0 0 0 0 0 0 0 0 0 0 0 0 0 0 0 0 0 0 0 0 0 0 0 0 0 0 0 0 21 65 17 0 10 0 0 0 0 0 0 0 0 0 0 0
0 0 0 0 0 0 0 0 0 0 0 0 0 0 0 0 0 0 0 0 0 0 0 0 5 18 17 0 5 73 81 35 23 0 12 0 0 0 0 0 0 0 0 0
0 0 0 0 0 0 0 0 0 0 0 0 0 0 0 0 0 0 0 0 0 0 19 19 26 28 22 25 25 80 64 55 60 0 23 0 3 15 0 6 0 0 0 0
0 0 0 0 0 0 0 0 0 0 0 0 0 0 0 0 0 0 0 5 25 22 13 34 0 0 0 11 60 89 92 87 0 9 23 39 130 12 5 31 0 0 0 0
0 0 0 0 0 0 0 0 0 0 0 0 0 0 0 0 0 0 0 0 0 0 0 0 0 0 0 11 7 2 57 81 0 3 12 61 57 13 2 0 3 0 0 0
0 0 0 0 0 0 0 0 0 0 0 0 0 0 0 0 0 0 0 0 0 0 0 0 0 0 0 0 0 0 0 1 0 10 12 21 108 85 35 55 5 54 5 28
0 0 0 0 0 0 0 0 0 0 0 0 0 0 0 0 2 0 0 0 0 0 0 0 0 0 0 0 0 0 0 0 1 5 3 4 83 108 85 27 69 68 71 90
0 0 0 0 0 0 0 0 0 0 0 0 0 0 0 0 0 0 1 0 0 0 0 0 0 0 0 0 0 0 0 0 1 0 1 0 29 103 73 54 71 73 57 145
0 0 0 0 0 0 0 0 0 0 0 0 0 0 0 0 0 0 0 0 0 0 0 0 0 0 0 0 0 0 0 0 0 0 0 36 88 70 80 76 65 59 101 187
0 0 0 0 0 0 0 0 0 0 0 0 0 0 0 0 0 0 0 0 0 0 0 0 0 0 0 0 0 0 0 0 13 76 7 1 41 29 27 27 40 104 95 221
0 0 0 0 0 0 0 0 7 1 0 0 0 0 0 0 0 0 0 0 0 0 0 0 0 0 0 0 0 0 0 0 0 8 4 39 90 91 18 32 65 68 196 240
0 0 0 0 0 0 0 0 6 17 8 2 0 0 7 0 0 0 0 0 0 0 0 0 0 0 0 0 0 0 0 0 0 0 0 0 1 0 33 38 61 87 257 172
0 0 0 0 0 0 0 0 6 29 8 3 0 4 22 41 10 0 0 0 0 0 0 0 0 0 0 0 0 0 0 0 0 0 0 6 8 59 15 105 37 26 119 169
0 0 0 0 0 0 0 6 7 14 0 0 10 49 4 20 28 28 2 0 0 0 1 0 0 0 0 0 0 0 0 0 0 0 0 0 0 0 0 0 33 36 102 200
0 0 0 0 0 0 0 0 0 0 0 3 12 22 140 21 9 13 5 0 0 0 7 0 0 0 0 0 0 0 0 0 0 0 0 0 0 0 0 0 18 67 44 13
0 0 0 2 10 0 0 0 0 0 0 12 4 9 20 17 2 3 1 0 0 0 1 2 0 83 0 0 34 88 42 0 0 0 0 0 0 0 0 0 0 0 0 0
0 0 0 0 0 0 0 0 0 0 0 3 0 3 2 9 29 2 8 1 1 0 0 0 0 0 39 3 14 57 33 7 0 0 0 0 0 0 0 0 0 0 0 0
0 0 0 0 0 0 0 0 0 0 6 0 6 6 1 25 1 10 6 0 0 0 0 0 79 79 24 9 5 19 23 4 0 0 0 0 0 0 0 0 0 0 0 0
0 0 8 0 0 0 0 0 0 0 0 0 0 0 5 26 0 26 4 1 0 0 0 0 19 87 74 24 2 0 31 4 0 0 0 0 0 0 0 0 0 0 0 0
0 3 2 0 4 7 0 0 0 0 0 0 0 0 2 0 1 0 0 0 0 0 0 67 41 67 66 52 13 0 0 36 10 11 6 3 0 1 0 0 0 0 0 0
0 0 1 5 12 3 0 0 0 0 0 0 0 0 0 0 0 0 0 0 0 0 0 17 60 76 72 62 43 6 0 25 59 36 28 24 25 28 31 34 12 0 0 0
0 0 0 2 4 5 0 0 0 0 0 0 0 0 0 0 0 0 0 0 0 8 33 12 2 27 85 79 59 31 0 0 40 91 97 78 72 84 104 83 41 21 0 0
0 4 7 0 0 0 0 11 1 0 0 0 1 9 0 0 0 0 0 0 5 0 0 0 0 82 124 42 42 46 6 17 36 86 136 131 144 121 94 10 13 3 25 1

GFSNW_con_mucape_048.txt.gz
CAPE
0 0 0 0 0 0 0 0 0 0 0 0 0 0 0 0 0 0 0 0 0 0 0 0 0 0 0 0 0 0 0 0 0 0 0 0 0 0 7 13 19 2 4 9
0 0 0 0 0 0 0 0 0 0 0 0 0 0 0 0 0 0 0 0 0 0 0 0 0 0 0 0 0 0 0 0 0 0 0 0 0 0 0 0 4 25 15 2
0 0 0 0 0 0 0 0 0 0 0 0 0 0 0 0 0 0 0 0 0 0 0 0 0 0 0 0 0 0 0 0 0 0 0 0 0 0 0 21 2 0 1 13
0 0 0 0 0 0 0 0 0 0 0 0 0 0 0 0 0 0 0 0 0 0 0 0 0 0 0 1 18 28 12 0 0 0 0 0 0 0 0 0 2 0 1 36
0 0 0 0 0 0 0 0 0 0 0 0 0 0 0 0 0 0 0 0 0 0 79 70 35 14 32 36 64 36 38 0 0 0 0 0 0 0 0 0 0 0 0 0
0 0 0 0 0 0 0 0 0 0 0 0 0 0 0 0 6 3 6 0 0 1 7 3 17 45 66 68 88 97 86 81 68 0 0 0 0 0 0 0 0 0 0 0
0 0 0 0 0 0 0 0 0 0 0 0 0 0 0 0 0 0 1 25 16 28 34 65 60 80 122 156 106 89 146 160 163 39 7 0 0 0 0 0 0 0 0 0
0 0 0 0 0 0 0 0 0 0 0 0 0 0 0 0 0 0 0 0 9 23 33 0 89 49 44 89 142 95 139 194 104 149 0 0 0 0 9 0 0 0 2 0
0 0 0 0 0 0 0 0 0 0 0 0 0 0 0 0 0 0 0 0 16 0 0 0 0 0 0 10 45 132 105 261 275 153 0 0 12 17 38 38 63 95 58 114
0 0 0 0 0 0 0 0 0 0 0 0 0 0 0 0 0 0 0 0 0 0 0 0 0 0 0 0 0 0 165 215 33 0 0 0 12 0 58 58 106 5 0 0
0 0 0 0 0 0 0 0 0 0 0 0 0 0 0 0 0 0 0 0 0 0 0 0 0 0 0 0 0 0 0 0 0 0 0 0 0 4 15 64 19 89 79 20
0 0 0 0 0 0 0 0 0 0 0 0 3 3 0 0 0 0 0 0 0 0 0 0 0 0 0 0 0 0 0 0 1 0 0 0 0 1 0 78 153 144 126 16
0 0 0 0 0 0 0 0 0 0 0 3 0 0 2 9 0 31 54 36 51 0 0 0 0 0 0 0 0 0 0 0 0 0 0 0 0 0 0 36 167 184 183 122
0 0 0 0 0 0 0 0 0 0 0 9 0 0 0 0 0 0 9 16 4 0 0 0 0 0 0 0 0 0 0 0 0 0 0 0 0 0 0 54 167 266 199 295
0 0 0 0 0 0 0 0 0 5 7 13 0 0 0 0 0 0 0 5 21 39 13 0 0 0 0 0 0 0 0 0 0 0 0 0 0 0 0 19 63 246 247 132
0 0 0 0 0 0 0 0 0 10 14 0 22 4 6 7 4 0 0 0 0 6 14 0 0 0 0 0 0 0 0 0 0 0 0 0 0 0 0 137 99 117 268 295
0 0 0 0 0 0 0 0 4 4 16 0 158 197 4 1 2 1 0 5 0 0 7 26 13 0 0 0 0 0 0 0 0 0 0 0 0 0 0 0 0 0 3 157
0 0 0 0 0 0 12 2 0 0 0 0 108 288 206 8 2 3 4 43 26 1 6 14 14 32 40 0 0 81 6 0 0 0 0 0 0 0 0 0 21 115 81 42
0 0 0 0 0 0 0 0 0 0 0 6 4 199 324 0 17 0 1 15 57 3 33 30 39 4 19 70 49 85 74 0 0 0 0 0 0 0 0 0 0 13 9 42
0 0 0 13 0 0 0 0 0 0 0 0 0 1 146 16 3 25 7 0 0 0 13 23 0 0 46 1 31 70 68 35 22 0 0 0 0 0 0 0 0 0 0 8
0 0 13 0 0 0 0 2 15 50 181 60 4 3 194 33 46 18 2 2 5 0 0 17 21 18 59 37 26 63 69 43 12 9 7 0 0 0 0 0 0 0 0 0
0 0 0 0 0 35 12 2 0 13 12 16 18 80 5 21 11 23 9 24 10 0 1 5 70 70 43 33 15 22 82 61 38 31 22 32 21 0 0 0 0 0 0 0
0 0 39 3 6 21 7 82 22 25 6 1 0 4 57 4 1 18 30 38 40 5 4 0 56 49 9 14 15 10 33 79 64 51 39 38 44 49 47 0 0 0 0 0
3 160 9 5 14 31 39 46 29 0 0 0 0 125 120 92 163 90 54 38 19 0 0 7 35 64 25 5 1 2 8 31 55 59 64 51 46 45 47 50 50 0 0 0
11 34 2 9 22 27 21 12 1 0 0 1 9 9 111 50 33 1 0 0 0 0 70 50 81 109 94 37 33 0 3 8 46 58 58 50 49 54 46 49 44 50 9 0
17 58 50 35 37 87 70 83 101 12 8 7 1 4 0 0 0 0 0 0 0 49 101 82 28 118 90 85 89 64 16 18 31 51 52 45 48 33 43 24 21 34 50 50
66 21 19 91 121 140 141 122 99 5 12 43 25 10 11 1 0 0 0 0 57 67 47 13 104 58 65 47 59 86 37 49 52 49 43 42 47 36 21 22 23 25 47 58